Simultaneous Nadir Overpasses (SNOs) Predictions

Prediction of SNOs between NOAA-19 and TERRA Satellite Orbit:

Table of predicted SNOs for the next 14.0 days since TLE Epoch: 2/20/2021
Index Date (NOAA-19) Time (NOAA-19) Lat,Lon (NOAA-19) SZA (NOAA-19 ) Date (TERRA) Time (TERRA) Lat,Lon (TERRA) SZA (TERRA ) Distance(km) Time Diff (sec)
1 02/21/2021 05:13:00 -80.05, -46.25 88.34 02/21/2021 05:14:02 -80.06, -46.41 88.33 3.10 62
2 02/21/2021 06:04:01 80.04, 121.21 91.66 02/21/2021 06:03:28 80.06, 121.25 91.67 2.52 33
3 02/23/2021 11:37:13 -80.05,-142.23 89.15 02/23/2021 11:37:12 -80.05,-142.31 89.17 1.98 1
4 02/25/2021 17:10:26 80.06, -45.46 90.05 02/25/2021 17:10:54 80.06, -45.61 90.05 2.87 28
5 02/25/2021 18:01:26 -80.06, 121.79 89.97 02/25/2021 18:00:22 -80.03, 121.77 90.02 2.80 64
6 02/27/2021 22:43:39 -80.07, 51.16 90.78 02/27/2021 22:44:37 -80.08, 51.13 90.75 1.71 58
7 02/27/2021 23:34:38 80.05,-141.34 89.21 02/27/2021 23:34:03 80.08,-141.26 89.23 3.48 35
8 03/02/2021 05:07:52 -80.07, -44.85 91.63 03/02/2021 05:07:47 -80.07, -44.82 91.63 0.89 5
9 03/04/2021 10:41:03 80.07, 51.93 87.54 03/04/2021 10:41:29 80.07, 51.80 87.54 2.40 26



Historial Predications of SNOs between NOAA-19 and TERRA
